Terminal Aerodrome Forecast
Issued by NWS Boise, ID

Home | Current Version | Previous Version | Text Only | Print | Product List | Glossary On
Versions: 1 2 3 4 5 6 7 8 9 10 11 12 13 14 15 16 17 18 19 20 21 22 23 24 25 26
000
FTUS45 KBOI 230526
TAFBOI
TAF
KBOI 230526Z 2306/2406 13004KT P6SM BKN200
     FM230630 29011G18KT P6SM BKN120
     FM230800 14008KT P6SM BKN150=

USA.gov is the U.S. government's official web portal to all federal, state and local government web resources and services.